Radiation Dose at Monitoring Post of Fukushima Daini Nuclear Power Station
Date,Time,MP-1(microSv/h),MP-2(microSv/h),MP-3(microSv/h),MP-4(microSv/h),MP-5(microSv/h),MP-6(microSv/h),MP-7(microSv/h),Wind Direction,Wind Velocity(m/s),Rain
2024/05/26,00:00,0.148,0.130,0.212,0.199,0.207,0.116,0.075,east-southeast,1.0,No
2024/05/26,00:10,0.148,0.130,0.212,0.199,0.207,0.117,0.076,southeast,1.6,No
2024/05/26,00:20,0.149,0.130,0.214,0.198,0.206,0.117,0.075,east-southeast,1.9,No
2024/05/26,00:30,0.147,0.130,0.214,0.200,0.207,0.116,0.075,east,2.0,No
2024/05/26,00:40,0.148,0.131,0.213,0.200,0.207,0.117,0.075,east,2.4,No
2024/05/26,00:50,0.147,0.131,0.212,0.198,0.207,0.116,0.075,east,1.7,No
2024/05/26,01:00,0.148,0.131,0.212,0.200,0.208,0.117,0.075,east-southeast,1.4,No
2024/05/26,01:10,0.148,0.131,0.212,0.200,0.207,0.116,0.075,east,1.4,No
2024/05/26,01:20,0.148,0.131,0.213,0.198,0.208,0.116,0.075,-,CALM,No
2024/05/26,01:30,0.148,0.130,0.213,0.200,0.208,0.116,0.075,-,CALM,No
2024/05/26,01:40,0.148,0.131,0.213,0.200,0.207,0.117,0.074,-,CALM,No
2024/05/26,01:50,0.147,0.131,0.212,0.199,0.208,0.117,0.075,-,CALM,No
2024/05/26,02:00,0.148,0.130,0.213,0.200,0.206,0.117,0.075,-,CALM,No
2024/05/26,02:10,0.148,0.131,0.212,0.200,0.207,0.116,0.075,-,CALM,No
2024/05/26,02:20,0.148,0.131,0.213,0.199,0.207,0.116,0.075,-,CALM,No
2024/05/26,02:30,0.147,0.129,0.213,0.200,0.208,0.116,0.075,southwest,0.7,No
2024/05/26,02:40,0.148,0.131,0.212,0.200,0.208,0.116,0.075,southwest,0.9,No
2024/05/26,02:50,0.147,0.130,0.213,0.198,0.208,0.115,0.075,south-southwest,1.1,No
2024/05/26,03:00,0.149,0.130,0.213,0.199,0.207,0.117,0.075,south,1.3,No
2024/05/26,03:10,0.149,0.130,0.213,0.200,0.207,0.117,0.076,south-southwest,0.9,No
2024/05/26,03:20,0.148,0.130,0.212,0.199,0.207,0.117,0.075,southwest,1.5,No
2024/05/26,03:30,0.148,0.130,0.213,0.200,0.208,0.116,0.075,south-southwest,1.3,No
2024/05/26,03:40,0.148,0.131,0.214,0.199,0.207,0.117,0.075,south-southwest,1.3,No
2024/05/26,03:50,0.148,0.130,0.213,0.200,0.209,0.117,0.074,south-southwest,1.5,No
2024/05/26,04:00,0.148,0.131,0.213,0.199,0.207,0.117,0.075,south-southwest,2.2,No
2024/05/26,04:10,0.148,0.131,0.213,0.200,0.208,0.116,0.075,south-southwest,2.3,No
2024/05/26,04:20,0.148,0.131,0.212,0.199,0.207,0.117,0.075,south-southwest,2.2,No
2024/05/26,04:30,0.148,0.131,0.212,0.200,0.206,0.116,0.075,south,1.9,No
2024/05/26,04:40,0.147,0.130,0.213,0.200,0.208,0.116,0.075,south-southwest,2.5,No
2024/05/26,04:50,0.148,0.131,0.213,0.199,0.206,0.117,0.075,south,2.6,No
2024/05/26,05:00,0.147,0.131,0.212,0.200,0.208,0.116,0.075,south,2.7,No
2024/05/26,05:10,0.148,0.130,0.210,0.199,0.207,0.117,0.075,south-southwest,3.0,No
2024/05/26,05:20,0.148,0.131,0.213,0.199,0.207,0.116,0.075,south-southwest,3.1,No
2024/05/26,05:30,0.148,0.131,0.213,0.199,0.207,0.115,0.075,south,2.8,No
2024/05/26,05:40,0.148,0.130,0.212,0.199,0.205,0.116,0.075,south,2.8,No
2024/05/26,05:50,0.147,0.130,0.212,0.200,0.207,0.116,0.075,south-southeast,3.3,No
2024/05/26,06:00,0.148,0.132,0.213,0.198,0.206,0.117,0.075,south,3.0,No
2024/05/26,06:10,0.146,0.130,0.212,0.199,0.206,0.116,0.075,south,3.3,No
2024/05/26,06:20,0.147,0.130,0.213,0.199,0.207,0.116,0.076,south-southeast,3.2,No
2024/05/26,06:30,0.148,0.130,0.213,0.198,0.208,0.116,0.075,south-southeast,3.5,No
2024/05/26,06:40,0.148,0.130,0.214,0.199,0.208,0.116,0.076,south-southeast,3.6,No
2024/05/26,06:50,0.148,0.130,0.212,0.200,0.207,0.117,0.075,south-southeast,2.7,No
2024/05/26,07:00,0.147,0.131,0.214,0.198,0.209,0.117,0.076,south-southeast,1.9,No
2024/05/26,07:10,0.147,0.130,0.212,0.200,0.208,0.117,0.075,south-southeast,2.5,No
2024/05/26,07:20,0.149,0.130,0.212,0.198,0.208,0.118,0.075,south-southeast,3.4,No
2024/05/26,07:30,0.146,0.130,0.213,0.200,0.206,0.116,0.075,south-southeast,4.0,No
2024/05/26,07:40,0.146,0.129,0.210,0.199,0.208,0.116,0.075,south,5.5,No
2024/05/26,07:50,0.148,0.130,0.210,0.197,0.207,0.116,0.075,south-southeast,5.9,No
2024/05/26,08:00,0.148,0.130,0.212,0.199,0.205,0.115,0.075,south,7.4,No
2024/05/26,08:10,0.147,0.129,0.210,0.198,0.207,0.116,0.074,south,6.7,No
2024/05/26,08:20,0.146,0.129,0.210,0.196,0.205,0.116,0.075,south-southeast,6.0,No
2024/05/26,08:30,0.148,0.130,0.210,0.197,0.205,0.116,0.075,south,7.3,No
2024/05/26,08:40,0.148,0.131,0.209,0.200,0.207,0.117,0.075,south-southeast,6.8,No
2024/05/26,08:50,0.147,0.130,0.213,0.200,0.207,0.117,0.074,south-southeast,6.7,No
2024/05/26,09:00,0.146,0.130,0.212,0.198,0.205,0.116,0.075,south-southeast,6.7,No
2024/05/26,09:10,0.146,0.131,0.212,0.196,0.205,0.116,0.075,south-southeast,7.5,No
2024/05/26,09:20,0.149,0.130,0.211,0.200,0.208,0.116,0.075,south-southeast,8.8,No
2024/05/26,09:30,0.148,0.129,0.210,0.200,0.207,0.116,0.074,south-southeast,8.2,No
2024/05/26,09:40,0.147,0.130,0.210,0.199,0.204,0.117,0.075,south-southeast,8.8,No
2024/05/26,09:50,0.146,0.130,0.212,0.197,0.205,0.116,0.074,south-southeast,8.4,No
2024/05/26,10:00,0.146,0.130,0.213,0.197,0.208,0.116,0.074,south-southeast,8.2,No
2024/05/26,10:10,0.149,0.130,0.212,0.200,0.207,0.116,0.074,south-southeast,10.6,No
2024/05/26,10:20,0.148,0.130,0.210,0.200,0.206,0.116,0.075,south-southeast,9.2,No
2024/05/26,10:30,0.146,0.130,0.210,0.198,0.206,0.117,0.076,south-southeast,10.1,No
2024/05/26,10:40,0.146,0.129,0.213,0.197,0.208,0.116,0.075,south-southeast,10.1,No
2024/05/26,10:50,0.146,0.129,0.214,0.200,0.207,0.117,0.074,south-southeast,9.6,No
2024/05/26,11:00,0.149,0.131,0.211,0.199,0.205,0.115,0.075,south-southeast,9.3,No
2024/05/26,11:10,0.148,0.131,0.210,0.197,0.207,0.116,0.074,south-southeast,11.4,No
2024/05/26,11:20,0.147,0.129,0.210,0.198,0.208,0.116,0.074,south-southeast,10.9,No
2024/05/26,11:30,0.146,0.129,0.213,0.200,0.207,0.116,0.074,south-southeast,12.0,No
2024/05/26,11:40,0.146,0.130,0.214,0.199,0.205,0.116,0.075,south-southeast,10.7,No
2024/05/26,11:50,0.146,0.129,0.212,0.198,0.204,0.117,0.075,south-southeast,10.0,No
2024/05/26,12:00,0.146,0.129,0.211,0.199,0.206,0.117,0.075,south-southeast,7.5,No
2024/05/26,12:10,0.147,0.129,0.210,0.198,0.207,0.115,0.074,south-southeast,10.0,No
2024/05/26,12:20,0.149,0.130,0.210,0.201,0.206,0.117,0.075,south,10.3,No
2024/05/26,12:30,0.149,0.131,0.212,0.201,0.205,0.117,0.075,south-southeast,8.8,No
2024/05/26,12:40,0.148,0.130,0.215,0.199,0.205,0.117,0.075,south-southeast,10.6,No
2024/05/26,12:50,0.147,0.130,0.213,0.198,0.207,0.116,0.074,south-southeast,9.6,No
2024/05/26,13:00,0.147,0.129,0.212,0.200,0.207,0.116,0.075,south-southeast,10.1,No
2024/05/26,13:10,0.146,0.130,0.211,0.201,0.207,0.116,0.075,south,10.0,No
2024/05/26,13:20,0.146,0.131,0.211,0.200,0.204,0.118,0.075,south-southeast,11.2,No
2024/05/26,13:30,0.146,0.130,0.212,0.198,0.204,0.116,0.075,south-southeast,9.6,No
2024/05/26,13:40,0.149,0.131,0.214,0.197,0.204,0.116,0.075,south-southeast,10.3,No
2024/05/26,13:50,0.149,0.128,0.214,0.201,0.208,0.116,0.075,south,10.7,No
2024/05/26,14:00,0.148,0.129,0.214,0.201,0.208,0.117,0.075,south-southeast,12.0,No
2024/05/26,14:10,0.147,0.131,0.211,0.200,0.206,0.116,0.074,south,12.0,No
2024/05/26,14:20,0.146,0.132,0.214,0.199,0.206,0.116,0.074,south,12.0,No
2024/05/26,14:30,0.146,0.130,0.212,0.198,0.206,0.116,0.076,south,10.9,No
2024/05/26,14:40,0.146,0.129,0.210,0.199,0.205,0.116,0.076,south,9.2,No
2024/05/26,14:50,0.148,0.128,0.211,0.201,0.205,0.116,0.075,south,8.1,No
2024/05/26,15:00,0.149,0.128,0.211,0.200,0.205,0.116,0.074,south,9.3,No
2024/05/26,15:10,0.148,0.129,0.211,0.198,0.206,0.116,0.075,south,10.1,No
2024/05/26,15:20,0.147,0.130,0.215,0.197,0.206,0.116,0.076,south,10.6,No
2024/05/26,15:30,0.147,0.130,0.214,0.199,0.205,0.117,0.075,south,9.2,No
2024/05/26,15:40,0.147,0.131,0.212,0.201,0.206,0.117,0.074,south,10.4,No
2024/05/26,15:50,0.148,0.129,0.212,0.200,0.205,0.116,0.076,south,10.9,No
2024/05/26,16:00,0.149,0.131,0.213,0.198,0.206,0.116,0.074,south,10.1,No
2024/05/26,16:10,0.148,0.130,0.214,0.201,0.209,0.117,0.074,south,9.6,No
2024/05/26,16:20,0.147,0.130,0.212,0.200,0.208,0.116,0.075,south,9.5,No
2024/05/26,16:30,0.148,0.131,0.214,0.199,0.206,0.116,0.075,south,9.6,No
2024/05/26,16:40,0.149,0.131,0.215,0.202,0.207,0.117,0.074,south,9.5,No
2024/05/26,16:50,0.147,0.130,0.212,0.201,0.210,0.115,0.075,south,10.1,No
2024/05/26,17:00,0.147,0.131,0.213,0.199,0.208,0.117,0.074,south,9.5,No
2024/05/26,17:10,0.148,0.131,0.215,0.202,0.207,0.116,0.075,south,9.5,No
2024/05/26,17:20,0.148,0.130,0.212,0.201,0.205,0.117,0.075,south,7.4,No
2024/05/26,17:30,0.148,0.131,0.214,0.200,0.209,0.116,0.075,south,8.5,No
2024/05/26,17:40,0.149,0.130,0.213,0.200,0.207,0.117,0.075,south,9.0,No
2024/05/26,17:50,0.148,0.130,0.213,0.199,0.207,0.116,0.075,south,6.5,No
2024/05/26,18:00,0.148,0.131,0.214,0.200,0.209,0.116,0.075,south,7.9,No
2024/05/26,18:10,0.149,0.130,0.214,0.199,0.207,0.117,0.076,south,6.2,No
2024/05/26,18:20,0.148,0.131,0.214,0.201,0.207,0.116,0.075,south,6.5,No
2024/05/26,18:30,0.149,0.131,0.213,0.199,0.209,0.117,0.076,south,8.5,No
2024/05/26,18:40,0.149,0.130,0.214,0.201,0.207,0.117,0.075,south,6.5,No
2024/05/26,18:50,0.148,0.130,0.213,0.201,0.209,0.115,0.075,south,6.7,No
2024/05/26,19:00,0.148,0.130,0.214,0.199,0.206,0.117,0.075,south,6.3,No
2024/05/26,19:10,0.147,0.131,0.214,0.200,0.208,0.116,0.075,south,7.5,No
2024/05/26,19:20,0.148,0.130,0.213,0.199,0.207,0.116,0.075,south,7.3,No
2024/05/26,19:30,0.148,0.131,0.214,0.201,0.207,0.117,0.075,south,7.2,No
2024/05/26,19:40,0.148,0.130,0.213,0.199,0.208,0.115,0.075,south,7.6,No
2024/05/26,19:50,0.149,0.131,0.215,0.201,0.206,0.116,0.075,south,7.2,No
2024/05/26,20:00,0.147,0.130,0.212,0.200,0.209,0.116,0.075,south,7.5,No
2024/05/26,20:10,0.149,0.131,0.214,0.200,0.206,0.117,0.074,south,8.2,No
2024/05/26,20:20,0.147,0.130,0.213,0.201,0.208,0.117,0.076,south,7.6,No
2024/05/26,20:30,0.148,0.132,0.213,0.200,0.206,0.117,0.075,south,7.0,No
2024/05/26,20:40,0.148,0.131,0.213,0.200,0.207,0.117,0.075,south,7.6,No
2024/05/26,20:50,0.148,0.131,0.214,0.200,0.208,0.116,0.076,south,5.9,No
2024/05/26,21:00,0.149,0.130,0.213,0.200,0.208,0.117,0.075,south,7.4,No
2024/05/26,21:10,0.147,0.130,0.214,0.198,0.208,0.116,0.075,south,8.3,No
2024/05/26,21:20,0.149,0.130,0.213,0.201,0.206,0.116,0.076,south,7.5,No
2024/05/26,21:30,0.147,0.130,0.215,0.199,0.208,0.117,0.076,south,6.5,No
2024/05/26,21:40,0.148,0.131,0.212,0.200,0.208,0.117,0.075,south,5.7,No
2024/05/26,21:50,0.147,0.129,0.215,0.200,0.206,0.116,0.076,south,6.8,No
2024/05/26,22:00,0.149,0.131,0.214,0.201,0.207,0.116,0.074,south,5.4,No
2024/05/26,22:10,0.149,0.130,0.214,0.200,0.207,0.116,0.075,south,7.3,No
2024/05/26,22:20,0.148,0.132,0.213,0.200,0.208,0.117,0.075,south-southwest,7.6,No
2024/05/26,22:30,0.149,0.130,0.213,0.201,0.208,0.116,0.075,south-southwest,6.7,No
2024/05/26,22:40,0.148,0.130,0.213,0.199,0.208,0.116,0.075,south,7.0,No
2024/05/26,22:50,0.147,0.130,0.214,0.201,0.207,0.116,0.076,south,7.2,No
2024/05/26,23:00,0.148,0.131,0.213,0.199,0.208,0.117,0.075,south,6.7,No
2024/05/26,23:10,0.149,0.130,0.214,0.202,0.207,0.117,0.075,south,7.4,No
2024/05/26,23:20,0.148,0.131,0.214,0.200,0.208,0.116,0.076,south,7.1,No
2024/05/26,23:30,0.149,0.131,0.214,0.201,0.206,0.116,0.075,south,7.7,No
2024/05/26,23:40,0.149,0.131,0.213,0.199,0.208,0.116,0.075,south-southeast,7.3,No
2024/05/26,23:50,0.148,0.130,0.214,0.201,0.207,0.116,0.076,south,5.5,No
